Location: Clyde
(45.1830°S, 169.3170°E)
Time: 13:29:13
(UTC+12:00)

ISS - Visible Passes

Search period start: 01 July 2022 00:00
Search period end: 11 July 2022 00:00
Orbit: 414 x 420 km, 51.6° (Epoch: 30 June)

Date Brightness Start Highest point End Pass type
(mag) Time Alt. Az. Time Alt. Az. Time Alt. Az.
01 Jul -2.7 18:55:44 10° SW 18:58:46 33° S 18:58:46 33° S visible
02 Jul -2.6 18:07:30 10° SW 18:10:33 29° S 18:12:40 16° ESE visible
02 Jul -1.4 19:44:15 10° WSW 19:45:36 22° SW 19:45:36 22° SW visible
03 Jul -3.6 18:56:05 10° SW 18:59:26 53° SSE 18:59:35 52° SE visible
04 Jul -3.1 18:07:52 10° SW 18:11:08 39° SSE 18:13:41 15° E visible
04 Jul -1.7 19:44:40 10° WSW 19:46:37 29° W 19:46:37 29° W visible
05 Jul -3.6 18:56:22 10° WSW 18:59:47 74° NNW 19:00:53 39° NE visible
06 Jul -3.8 18:08:05 10° WSW 18:11:32 73° SSE 18:14:55 10° ENE visible
06 Jul -1.2 19:45:30 10° W 19:47:58 19° NW 19:48:20 18° NW visible
07 Jul -1.8 18:56:50 10° WSW 18:59:51 30° NW 19:02:51 10° NNE visible
08 Jul -2.7 18:08:22 10° WSW 18:11:41 48° NW 18:14:58 10° NE visible
09 Jul -0.4 18:58:16 10° WNW 18:59:40 12° NW 19:01:05 10° NNW visible
10 Jul -0.7 18:09:01 10° W 18:11:35 20° NW 18:14:06 10° N visible
